Torna al catalogo

CZ-11 R/B

AttivoLEO
NORAD 43872·ROCKET BODY·🇨🇳 China

Lanciato Dec 21, 2018 da Jiuquan Satellite Launch Center

Loading…

Prossimi Passaggi (prossime 24 ore)

TLE

AggiornatoSource: Space-Track

Epoca: Sep 14, 2026, 16:42 UTC

1 43872U 18108B   26257.69602796 -.00000157  00000-0 -38930-4 0  9991
2 43872 100.3621 337.1319 0331238  43.1870 319.4765 14.01887995395441

Traccia CZ-11 R/B in tempo reale con AllMySat

Download on the App Store